Regional Weather Roundup
Issued by NWS

Home | Current Version | Previous Version | Graphics & Text | Print | Product List | Glossary On
Versions: 1 2 3 4 5 6 7 8 9 10 11 12 13 14 15 16 17 18 19 20 21 22 23 24 25 26 27 28 29 30 31 32 33 34 35 36 37 38 39 40 41 42 43 44 45 46 47 48 49 50
000
ASUS45 KSLC 311010
RWRUT

UTAH REGIONAL WEATHER ROUNDUP
NATIONAL WEATHER SERVICE SALT LAKE CITY UT
400 AM MDT MON AUG 31 2015

UTZ001>011-023>025-311100-

NORTHERN UTAH

CITY           SKY/WX    TMP DP  RH WIND       PRES   REMARKS
BRIGHAM CITY     N/A     61  33  35 SE3       30.05R
HILL AFB         N/A     65  39  37 E10       30.06R
LOGAN          CLEAR     52  40  63 CALM      30.09R
OGDEN            N/A     60  39  45 CALM      30.04R
PROVO AIRPORT    N/A     61  48  63 CALM      30.04R
SALT LAKE CITY MOCLDY    66  44  45 NE9       30.03R
VERNAL         PTCLDY    61  51  70 CALM      30.12R
WENDOVER         N/A     68  27  21 S6        30.07R
HEBER CITY       N/A     52  46  82 CALM      30.12R
WEST JORDAN    CLEAR     64  37  36 NW6       30.06R

$$

UTZ012>022-026-027-311100-

SOUTHERN/CENTRAL UTAH

CITY           SKY/WX    TMP DP  RH WIND       PRES   REMARKS
BLANDING         N/A     58  53  83 N6        30.25S
BRYCE CANYON     N/A     45  43  93 CALM      30.29R
CEDAR CITY       N/A     63  47  55 SW6       30.10S
DELTA            N/A     64  39  39 NW6       30.02S
HANKSVILLE       N/A     66  55  68 N14       30.06R
MILFORD          N/A     66  44  45 SW13      30.05R
MOAB/CYNLANDS  MOCLDY    65  57  75 SE6       30.06S
PRICE            N/A     56  51  84 NE5       30.14S
ST GEORGE        N/A     77  55  47 SE12      29.96R
KANAB            N/A     63  57  82 N9        30.17R

$$

REGIONAL REPORTS     COLORADO/ARIZONA

CITY           SKY/WX    TMP DP  RH WIND       PRES   REMARKS
CRAIG, CO      CLOUDY    58  50  75 NE5       30.22R
GRAND JUNCTION MOCLDY    63  57  81 E10       30.11F
RIFLE          LGT RAIN  60  57  89 CALM      30.19F
MONTROSE       CLOUDY    59  56  89 SE7       30.20F
CORTEZ         CLEAR     57  51  80 E7        30.19S
PAGE, AZ         N/A     67  59  75 S3        30.08R
GRAND CANYON     N/A    N/A N/A N/A MISG      30.23S
KINGMAN          N/A     75  40  28 SE8       29.94S
FLAGSTAFF        N/A     52  52 100 CALM      30.28F

$$

REGIONAL REPORTS    NEVADA/IDAHO/WYOMING

CITY           SKY/WX    TMP DP  RH WIND       PRES   REMARKS
LAS VEGAS, NV    N/A     84  43  23 CALM      29.79R
ELY              N/A     47  26  44 S10       30.15S
ELKO             N/A     50  20  30 NE6       30.10S
POCATELLO, ID  CLEAR     56  29  35 VRB6      30.08S
BURLEY           N/A     49  38  65 S5        30.08R
EVANSTON, WY   MOCLDY    53  39  59 NW8       30.21R
ROCK SPRINGS   PTCLDY    54  48  80 MISG      30.18R
KEMMERER       PTCLDY    50  32  50 NW10      30.21F

$$



USA.gov is the U.S. government's official web portal to all federal, state and local government web resources and services.